Location: Cardiff
(53.7833°N, 113.6000°W)
Time: 16:52:43
(UTC+00:00)

RS-15 - Pass Details

Date: 08 December 2023
Orbit: 1893 x 2151 km, 64.8° (Epoch: 27 February)

Event Time Altitude Azimuth Distance (km) Brightness Sun altitude
Rises 02:29:26 0° 180° (S) 5,652 10.5 -27.4°
Reaches altitude 10° 02:33:11 10° 174° (S) 4,640 9.9 -27.9°
Enters shadow 02:42:22 39° 127° (SE) 2,881 8.5 -29.3°
